Tracking 30922 objects as of 2-Jul-2025
HD Live streaming from Space Station
objects crossing your sky now

SCOUT G-1 R/B

Track SCOUT G-1 R/B now!
10-day predictions


NORAD ID: 17071
Int'l Code: 1986-088B
Perigee: 959.7 km
Apogee: 1,014.0 km
Inclination: 89.6 °
Period: 104.7 minutes
Semi major axis: 7357 km
RCS: 0.8546 m2 (medium)
Launch date: November 14, 1986
Source: United States (US)
Launch site: AIR FORCE WESTERN TEST RANGE (AFWTR)

Note: This is a ROCKET BODY
Your satellite tracking list
FENGYUN 1C DEB
Track 1 satellite(s)




NASA's NSSDC Master Catalog

Two Line Element Set (TLE):
1 17071U 86088B   25182.56917965  .00000086  00000-0  77198-4 0  9992
2 17071  89.6064 181.9386 0036838 233.4801 126.2970 13.75551289937525
Source of the keplerian elements: AFSPC